Location: Lecco
(45.8566°N, 9.3977°E)
Time: 13:20:17
(UTC+02:00)

Explorer 11/Cluster Stage 4 - Pass Details

Date: 18 August 2020
Orbit: 467 x 1258 km, 28.8° (Epoch: 24 September)

Event Time Altitude Azimuth Distance (km) Brightness Sun altitude
Rises 23:07:23 0° 246° (WSW) 3,853 10.3 -23.6°
Reaches altitude 10° 23:10:50 10° 230° (SW) 3,014 9.5 -24.0°
Enters shadow 23:14:14 19° 204° (SSW) 2,521 8.9 -24.3°
Maximum altitude 23:16:01 20° 187° (S) 2,471 - -24.5°
Drops below altitude 10° 23:21:31 10° 145° (SE) 3,217 - -25.1°
Sets 23:25:22 0° 130° (SE) 4,194 - -25.4°
